Time,TemperatureF,DewpointF,PressureIn,WindDirection,WindDirectionDegrees,WindSpeedMPH,WindSpeedGustMPH,Humidity,HourlyPrecipIn,Conditions,Clouds,dailyrainin,SoftwareType,DateUTC
2013-06-06 00:04:00,58.0,50.5,29.95,NNW,327,4.0,13.0,76,0.00,,,0.00,Wunderground v.1.15,2013-06-06 05:04:00,
2013-06-06 00:09:00,57.8,50.3,29.95,NNW,327,3.0,13.0,76,0.00,,,0.00,Wunderground v.1.15,2013-06-06 05:09:00,
2013-06-06 00:19:00,57.7,50.5,29.95,NW,321,4.0,13.0,77,0.00,,,0.00,Wunderground v.1.15,2013-06-06 05:19:00,
2013-06-06 00:24:00,57.6,50.4,29.96,NW,320,4.0,13.0,77,0.00,,,0.00,Wunderground v.1.15,2013-06-06 05:24:00,
2013-06-06 00:30:00,57.5,50.7,29.96,NW,320,4.0,4.0,78,0.00,,,0.00,Wunderground v.1.15,2013-06-06 05:30:00,
2013-06-06 00:35:00,57.3,50.5,29.96,NW,320,3.0,13.0,78,0.00,,,0.00,Wunderground v.1.15,2013-06-06 05:35:00,
2013-06-06 00:40:00,57.2,50.4,29.96,NW,322,3.0,3.0,78,0.00,,,0.00,Wunderground v.1.15,2013-06-06 05:40:00,
2013-06-06 00:50:00,57.1,50.6,29.95,NW,319,3.0,13.0,79,0.00,,,0.00,Wunderground v.1.15,2013-06-06 05:50:00,
2013-06-06 00:55:00,57.0,50.5,29.95,NNW,329,4.0,13.0,79,0.00,,,0.00,Wunderground v.1.15,2013-06-06 05:55:00,
2013-06-06 01:00:00,56.9,50.5,29.95,NNW,329,4.0,4.0,79,0.00,,,0.00,Wunderground v.1.15,2013-06-06 06:00:00,
2013-06-06 01:09:00,56.6,50.5,29.95,NW,325,3.0,13.0,80,0.00,,,0.00,Wunderground v.1.15,2013-06-06 06:09:00,
2013-06-06 01:14:00,56.5,50.4,29.95,NW,325,3.0,13.0,80,0.00,,,0.00,Wunderground v.1.15,2013-06-06 06:14:00,
2013-06-06 01:19:00,56.4,50.6,29.95,NW,325,3.0,13.0,81,0.00,,,0.00,Wunderground v.1.15,2013-06-06 06:19:00,
2013-06-06 01:24:00,56.3,50.5,29.95,NW,325,3.0,13.0,81,0.00,,,0.00,Wunderground v.1.15,2013-06-06 06:24:00,
2013-06-06 01:29:00,56.2,50.4,29.95,NW,325,3.0,13.0,81,0.00,,,0.00,Wunderground v.1.15,2013-06-06 06:29:00,
2013-06-06 01:35:00,56.1,50.7,29.95,NW,325,3.0,13.0,82,0.00,,,0.00,Wunderground v.1.15,2013-06-06 06:35:00,
2013-06-06 01:40:00,56.1,50.7,29.95,NW,325,3.0,13.0,82,0.00,,,0.00,Wunderground v.1.15,2013-06-06 06:40:00,
2013-06-06 01:45:00,56.0,50.6,29.95,NW,325,2.0,13.0,82,0.00,,,0.00,Wunderground v.1.15,2013-06-06 06:45:00,
2013-06-06 01:50:00,55.9,50.8,29.94,NW,325,2.0,13.0,83,0.00,,,0.00,Wunderground v.1.15,2013-06-06 06:50:00,
2013-06-06 02:00:00,55.7,50.6,29.94,NW,324,2.0,13.0,83,0.00,,,0.00,Wunderground v.1.15,2013-06-06 07:00:00,
2013-06-06 02:05:00,55.6,50.5,29.93,NW,324,3.0,13.0,83,0.00,,,0.00,Wunderground v.1.15,2013-06-06 07:05:00,
2013-06-06 02:14:00,55.4,50.6,29.94,NW,324,1.0,13.0,84,0.00,,,0.00,Wunderground v.1.15,2013-06-06 07:14:00,
2013-06-06 02:19:00,55.2,50.4,29.94,NW,324,1.0,13.0,84,0.00,,,0.00,Wunderground v.1.15,2013-06-06 07:19:00,
2013-06-06 02:24:00,55.1,50.4,29.94,NW,324,1.0,13.0,84,0.00,,,0.00,Wunderground v.1.15,2013-06-06 07:24:00,
2013-06-06 02:29:00,54.9,50.5,29.94,NW,324,1.0,13.0,85,0.00,,,0.00,Wunderground v.1.15,2013-06-06 07:29:00,
2013-06-06 02:34:00,54.8,50.4,29.94,NW,324,1.0,13.0,85,0.00,,,0.00,Wunderground v.1.15,2013-06-06 07:34:00,
2013-06-06 02:40:00,54.8,50.4,29.94,NW,324,1.0,13.0,85,0.00,,,0.00,Wunderground v.1.15,2013-06-06 07:40:00,
2013-06-06 02:45:00,54.8,50.4,29.93,NW,324,1.0,13.0,85,0.00,,,0.00,Wunderground v.1.15,2013-06-06 07:45:00,
2013-06-06 02:50:00,54.7,50.3,29.93,NW,324,1.0,1.0,85,0.00,,,0.00,Wunderground v.1.15,2013-06-06 07:50:00,
2013-06-06 02:55:00,54.6,50.2,29.93,NW,324,1.0,13.0,85,0.00,,,0.00,Wunderground v.1.15,2013-06-06 07:55:00,
2013-06-06 03:00:00,54.6,50.5,29.93,NW,324,1.0,13.0,86,0.00,,,0.00,Wunderground v.1.15,2013-06-06 08:00:00,
2013-06-06 03:05:00,54.5,50.4,29.93,NW,324,1.0,13.0,86,0.00,,,0.00,Wunderground v.1.15,2013-06-06 08:05:00,
2013-06-06 03:10:00,54.5,50.4,29.93,NW,324,1.0,13.0,86,0.00,,,0.00,Wunderground v.1.15,2013-06-06 08:10:00,
2013-06-06 03:19:00,54.4,50.3,29.93,NW,324,1.0,13.0,86,0.00,,,0.00,Wunderground v.1.15,2013-06-06 08:19:00,
2013-06-06 03:24:00,54.4,50.3,29.93,NW,324,1.0,13.0,86,0.00,,,0.00,Wunderground v.1.15,2013-06-06 08:24:00,
2013-06-06 03:29:00,54.2,50.1,29.92,NW,324,1.0,13.0,86,0.00,,,0.00,Wunderground v.1.15,2013-06-06 08:29:00,
2013-06-06 03:39:00,53.9,49.8,29.92,NW,324,1.0,13.0,86,0.00,,,0.00,Wunderground v.1.15,2013-06-06 08:39:00,
2013-06-06 03:45:00,53.8,50.0,29.92,NW,324,1.0,13.0,87,0.00,,,0.00,Wunderground v.1.15,2013-06-06 08:45:00,
2013-06-06 03:50:00,53.7,49.9,29.92,NW,324,2.0,13.0,87,0.00,,,0.00,Wunderground v.1.15,2013-06-06 08:50:00,
2013-06-06 03:55:00,53.7,50.2,29.92,NW,324,2.0,13.0,88,0.00,,,0.00,Wunderground v.1.15,2013-06-06 08:55:00,
2013-06-06 04:00:00,53.7,50.2,29.91,NW,323,3.0,13.0,88,0.00,,,0.00,Wunderground v.1.15,2013-06-06 09:00:00,
2013-06-06 04:05:00,53.9,50.4,29.91,NW,324,4.0,13.0,88,0.00,,,0.00,Wunderground v.1.15,2013-06-06 09:05:00,
2013-06-06 04:10:00,54.1,50.3,29.91,NW,320,4.0,13.0,87,0.00,,,0.00,Wunderground v.1.15,2013-06-06 09:10:00,
2013-06-06 04:15:00,54.3,50.5,29.91,NW,317,5.0,13.0,87,0.00,,,0.00,Wunderground v.1.15,2013-06-06 09:15:00,
2013-06-06 04:20:00,54.3,50.5,29.91,NW,318,4.0,13.0,87,0.00,,,0.00,Wunderground v.1.15,2013-06-06 09:20:00,
2013-06-06 04:29:00,54.1,50.3,29.90,NW,321,4.0,13.0,87,0.00,,,0.00,Wunderground v.1.15,2013-06-06 09:29:00,
2013-06-06 04:34:00,54.1,50.3,29.90,NW,323,4.0,13.0,87,0.00,,,0.00,Wunderground v.1.15,2013-06-06 09:34:00,
2013-06-06 04:39:00,54.1,50.3,29.90,NNW,329,5.0,5.0,87,0.00,,,0.00,Wunderground v.1.15,2013-06-06 09:39:00,
2013-06-06 04:50:00,54.1,50.3,29.90,NNW,329,5.0,5.0,87,0.00,,,0.00,Wunderground v.1.15,2013-06-06 09:50:00,
2013-06-06 04:55:00,54.0,50.2,29.91,NNW,328,4.0,13.0,87,0.00,,,0.00,Wunderground v.1.15,2013-06-06 09:55:00,
2013-06-06 05:00:00,53.9,50.1,29.91,NNW,328,3.0,13.0,87,0.00,,,0.00,Wunderground v.1.15,2013-06-06 10:00:00,
2013-06-06 05:05:00,53.9,50.1,29.91,NW,323,4.0,13.0,87,0.00,,,0.00,Wunderground v.1.15,2013-06-06 10:05:00,
2013-06-06 05:10:00,53.8,50.0,29.91,NW,315,4.0,13.0,87,0.00,,,0.00,Wunderground v.1.15,2013-06-06 10:10:00,
2013-06-06 05:20:00,53.6,50.1,29.91,NW,315,3.0,13.0,88,0.00,,,0.00,Wunderground v.1.15,2013-06-06 10:20:00,
2013-06-06 05:25:00,53.5,50.0,29.91,NW,315,3.0,13.0,88,0.00,,,0.00,Wunderground v.1.15,2013-06-06 10:25:00,
2013-06-06 05:34:00,53.5,50.0,29.92,NW,316,3.0,4.0,88,0.00,,,0.00,Wunderground v.1.15,2013-06-06 10:34:00,
2013-06-06 05:39:00,53.4,49.9,29.92,NW,315,3.0,13.0,88,0.00,,,0.00,Wunderground v.1.15,2013-06-06 10:39:00,
2013-06-06 05:44:00,53.4,49.9,29.92,NW,315,2.0,13.0,88,0.00,,,0.00,Wunderground v.1.15,2013-06-06 10:44:00,
2013-06-06 05:54:00,53.3,50.1,29.92,NW,315,2.0,13.0,89,0.00,,,0.00,Wunderground v.1.15,2013-06-06 10:54:00,
2013-06-06 06:00:00,53.3,50.1,29.92,NW,315,2.0,2.0,89,0.00,,,0.00,Wunderground v.1.15,2013-06-06 11:00:00,
2013-06-06 06:05:00,53.3,50.1,29.92,NW,315,2.0,13.0,89,0.00,,,0.00,Wunderground v.1.15,2013-06-06 11:05:00,
2013-06-06 06:10:00,53.4,50.2,29.92,NW,315,2.0,13.0,89,0.00,,,0.00,Wunderground v.1.15,2013-06-06 11:10:00,
2013-06-06 06:15:00,53.5,50.3,29.92,NW,315,2.0,13.0,89,0.00,,,0.00,Wunderground v.1.15,2013-06-06 11:15:00,
2013-06-06 06:20:00,53.5,50.3,29.92,NW,315,2.0,2.0,89,0.00,,,0.00,Wunderground v.1.15,2013-06-06 11:20:00,
2013-06-06 06:30:00,53.7,50.8,29.93,NW,316,2.0,2.0,90,0.00,,,0.00,Wunderground v.1.15,2013-06-06 11:30:00,
2013-06-06 06:39:00,53.9,50.7,29.93,NW,316,3.0,13.0,89,0.00,,,0.00,Wunderground v.1.15,2013-06-06 11:39:00,
2013-06-06 06:44:00,53.9,51.0,29.93,NW,316,2.0,13.0,90,0.00,,,0.00,Wunderground v.1.15,2013-06-06 11:44:00,
2013-06-06 06:49:00,54.1,51.2,29.93,NW,316,2.0,13.0,90,0.00,,,0.00,Wunderground v.1.15,2013-06-06 11:49:00,
2013-06-06 06:55:00,54.4,51.5,29.93,NW,316,2.0,13.0,90,0.00,,,0.00,Wunderground v.1.15,2013-06-06 11:55:00,
2013-06-06 07:05:00,54.9,52.0,29.93,NW,316,3.0,13.0,90,0.00,,,0.00,Wunderground v.1.15,2013-06-06 12:05:00,
2013-06-06 07:10:00,55.2,52.0,29.93,NW,317,3.0,13.0,89,0.00,,,0.00,Wunderground v.1.15,2013-06-06 12:10:00,
2013-06-06 07:15:00,55.4,52.2,29.93,NW,317,3.0,13.0,89,0.00,,,0.00,Wunderground v.1.15,2013-06-06 12:15:00,
2013-06-06 07:20:00,55.6,52.4,29.94,NW,313,3.0,13.0,89,0.00,,,0.00,Wunderground v.1.15,2013-06-06 12:20:00,
2013-06-06 07:25:00,55.8,52.6,29.94,NW,311,3.0,13.0,89,0.00,,,0.00,Wunderground v.1.15,2013-06-06 12:25:00,
2013-06-06 07:34:00,56.4,53.2,29.94,NW,311,2.0,13.0,89,0.00,,,0.00,Wunderground v.1.15,2013-06-06 12:34:00,
2013-06-06 07:39:00,56.7,53.5,29.94,NW,311,2.0,13.0,89,0.00,,,0.00,Wunderground v.1.15,2013-06-06 12:39:00,
2013-06-06 07:44:00,57.0,53.8,29.94,NW,311,2.0,13.0,89,0.00,,,0.00,Wunderground v.1.15,2013-06-06 12:44:00,
2013-06-06 07:50:00,57.4,54.2,29.94,NW,312,2.0,13.0,89,0.00,,,0.00,Wunderground v.1.15,2013-06-06 12:50:00,
2013-06-06 07:55:00,58.0,54.5,29.94,NW,308,3.0,13.0,88,0.00,,,0.00,Wunderground v.1.15,2013-06-06 12:55:00,
2013-06-06 08:00:00,58.6,54.7,29.94,NW,322,3.0,3.0,87,0.00,,,0.00,Wunderground v.1.15,2013-06-06 13:00:00,
2013-06-06 08:10:00,59.4,54.9,29.95,NW,314,4.0,4.0,85,0.00,,,0.00,Wunderground v.1.15,2013-06-06 13:10:00,
2013-06-06 08:15:00,59.8,55.3,29.95,NW,319,5.0,8.0,85,0.00,,,0.00,Wunderground v.1.15,2013-06-06 13:15:00,
2013-06-06 08:20:00,60.0,55.2,29.95,NW,315,6.0,6.0,84,0.00,,,0.00,Wunderground v.1.15,2013-06-06 13:20:00,
2013-06-06 08:29:00,60.2,55.3,29.95,NW,323,6.0,13.0,84,0.00,,,0.00,Wunderground v.1.15,2013-06-06 13:29:00,
2013-06-06 08:34:00,60.4,55.2,29.96,NW,318,7.0,13.0,83,0.00,,,0.00,Wunderground v.1.15,2013-06-06 13:34:00,
2013-06-06 08:44:00,61.4,55.9,29.96,NNW,339,6.0,13.0,82,0.00,,,0.00,Wunderground v.1.15,2013-06-06 13:44:00,
2013-06-06 08:49:00,61.5,56.0,29.95,NNW,347,7.0,7.0,82,0.00,,,0.00,Wunderground v.1.15,2013-06-06 13:49:00,
2013-06-06 08:55:00,61.9,56.0,29.96,NW,325,7.0,13.0,81,0.00,,,0.00,Wunderground v.1.15,2013-06-06 13:55:00,
2013-06-06 09:00:00,62.2,56.3,29.96,NW,315,7.0,7.0,81,0.00,,,0.00,Wunderground v.1.15,2013-06-06 14:00:00,
2013-06-06 09:05:00,62.6,57.0,29.95,NNW,331,6.0,13.0,82,0.00,,,0.00,Wunderground v.1.15,2013-06-06 14:05:00,
2013-06-06 09:10:00,62.9,56.6,29.95,NW,317,5.0,13.0,80,0.00,,,0.00,Wunderground v.1.15,2013-06-06 14:10:00,
2013-06-06 09:20:00,62.0,55.8,29.95,NW,325,6.0,6.0,80,0.00,,,0.00,Wunderground v.1.15,2013-06-06 14:20:00,
2013-06-06 09:25:00,62.0,56.1,29.95,NW,321,6.0,8.0,81,0.00,,,0.00,Wunderground v.1.15,2013-06-06 14:25:00,
2013-06-06 09:30:00,62.1,56.2,29.95,NW,323,6.0,6.0,81,0.00,,,0.00,Wunderground v.1.15,2013-06-06 14:30:00,
2013-06-06 09:39:00,62.5,56.6,29.95,WNW,302,6.0,13.0,81,0.00,,,0.00,Wunderground v.1.15,2013-06-06 14:39:00,
2013-06-06 09:44:00,63.0,57.1,29.94,NW,325,7.0,13.0,81,0.00,,,0.00,Wunderground v.1.15,2013-06-06 14:44:00,
2013-06-06 09:54:00,64.1,57.5,29.94,NW,320,9.0,13.0,79,0.00,,,0.00,Wunderground v.1.15,2013-06-06 14:54:00,
2013-06-06 09:59:00,64.4,57.7,29.94,NW,322,9.0,9.0,79,0.00,,,0.00,Wunderground v.1.15,2013-06-06 14:59:00,
2013-06-06 10:05:00,64.9,57.9,29.93,NNW,329,9.0,10.0,78,0.00,,,0.00,Wunderground v.1.15,2013-06-06 15:05:00,
2013-06-06 10:10:00,65.4,57.6,29.94,NNW,337,8.0,13.0,76,0.00,,,0.00,Wunderground v.1.15,2013-06-06 15:10:00,
2013-06-06 10:15:00,65.2,56.3,29.93,NNW,330,9.0,13.0,73,0.00,,,0.00,Wunderground v.1.15,2013-06-06 15:15:00,
2013-06-06 10:25:00,65.9,57.0,29.93,NNW,334,10.0,12.0,73,0.00,,,0.00,Wunderground v.1.15,2013-06-06 15:25:00,
2013-06-06 10:30:00,65.9,56.6,29.93,NNW,333,11.0,11.0,72,0.00,,,0.00,Wunderground v.1.15,2013-06-06 15:30:00,
2013-06-06 10:35:00,64.9,56.0,29.93,NNW,338,10.0,13.0,73,0.00,,,0.00,Wunderground v.1.15,2013-06-06 15:35:00,
2013-06-06 10:44:00,64.9,56.0,29.93,North,5,9.0,13.0,73,0.00,,,0.00,Wunderground v.1.15,2013-06-06 15:44:00,
2013-06-06 10:49:00,65.6,55.5,29.93,NNW,332,10.0,13.0,70,0.00,,,0.00,Wunderground v.1.15,2013-06-06 15:49:00,
2013-06-06 10:59:00,66.3,55.8,29.93,NNW,333,10.0,13.0,69,0.00,,,0.00,Wunderground v.1.15,2013-06-06 15:59:00,
2013-06-06 11:04:00,66.1,54.8,29.93,North,355,10.0,13.0,67,0.00,,,0.00,Wunderground v.1.15,2013-06-06 16:04:00,
2013-06-06 11:10:00,66.0,55.5,29.93,NNW,338,10.0,13.0,69,0.00,,,0.00,Wunderground v.1.15,2013-06-06 16:10:00,
2013-06-06 11:15:00,66.1,55.2,29.93,NNW,329,9.0,13.0,68,0.00,,,0.00,Wunderground v.1.15,2013-06-06 16:15:00,
2013-06-06 11:20:00,66.8,55.5,29.93,NNW,329,9.0,9.0,67,0.00,,,0.00,Wunderground v.1.15,2013-06-06 16:20:00,
2013-06-06 11:25:00,67.0,55.7,29.93,NNW,342,8.0,12.0,67,0.00,,,0.00,Wunderground v.1.15,2013-06-06 16:25:00,
2013-06-06 11:35:00,67.2,54.6,29.93,NNW,335,9.0,13.0,64,0.00,,,0.00,Wunderground v.1.15,2013-06-06 16:35:00,
2013-06-06 11:40:00,67.4,54.4,29.93,WNW,300,10.0,10.0,63,0.00,,,0.00,Wunderground v.1.15,2013-06-06 16:40:00,
2013-06-06 11:49:00,67.3,53.8,29.94,NW,321,10.0,10.0,62,0.00,,,0.00,Wunderground v.1.15,2013-06-06 16:49:00,
2013-06-06 11:54:00,67.7,55.5,29.93,NNW,331,10.0,13.0,65,0.00,,,0.00,Wunderground v.1.15,2013-06-06 16:54:00,
2013-06-06 11:59:00,68.1,55.0,29.93,NW,323,9.0,13.0,63,0.00,,,0.00,Wunderground v.1.15,2013-06-06 16:59:00,
2013-06-06 12:09:00,68.5,55.0,29.93,NNW,328,9.0,9.0,62,0.00,,,0.00,Wunderground v.1.15,2013-06-06 17:09:00,
2013-06-06 12:15:00,69.2,57.4,29.94,NW,319,8.0,11.0,66,0.00,,,0.00,Wunderground v.1.15,2013-06-06 17:15:00,
2013-06-06 12:20:00,69.1,57.7,29.93,NW,321,9.0,14.0,67,0.00,,,0.00,Wunderground v.1.15,2013-06-06 17:20:00,
2013-06-06 12:25:00,69.2,57.4,29.94,NNW,336,10.0,14.0,66,0.00,,,0.00,Wunderground v.1.15,2013-06-06 17:25:00,
2013-06-06 12:30:00,69.1,56.0,29.93,NW,324,9.0,9.0,63,0.00,,,0.00,Wunderground v.1.15,2013-06-06 17:30:00,
2013-06-06 12:40:00,69.1,56.0,29.93,NW,325,8.0,8.0,63,0.00,,,0.00,Wunderground v.1.15,2013-06-06 17:40:00,
2013-06-06 12:45:00,69.7,55.2,29.93,NNW,340,6.0,13.0,60,0.00,,,0.00,Wunderground v.1.15,2013-06-06 17:45:00,
2013-06-06 12:54:00,68.8,54.3,29.93,NNW,333,8.0,13.0,60,0.00,,,0.00,Wunderground v.1.15,2013-06-06 17:54:00,
2013-06-06 12:59:00,69.1,55.5,29.93,NNW,336,8.0,13.0,62,0.00,,,0.00,Wunderground v.1.15,2013-06-06 17:59:00,
2013-06-06 13:04:00,68.9,54.0,29.93,NNW,330,7.0,13.0,59,0.00,,,0.00,Wunderground v.1.15,2013-06-06 18:04:00,
2013-06-06 13:14:00,69.2,55.2,29.93,NNW,331,6.0,9.0,61,0.00,,,0.00,Wunderground v.1.15,2013-06-06 18:14:00,
2013-06-06 13:20:00,69.3,55.7,29.93,NW,324,7.0,13.0,62,0.00,,,0.00,Wunderground v.1.15,2013-06-06 18:20:00,
2013-06-06 13:25:00,68.9,54.4,29.93,NNW,333,7.0,13.0,60,0.00,,,0.00,Wunderground v.1.15,2013-06-06 18:25:00,
2013-06-06 13:30:00,68.4,54.9,29.93,NNW,343,7.0,7.0,62,0.00,,,0.00,Wunderground v.1.15,2013-06-06 18:30:00,
2013-06-06 13:35:00,68.2,53.8,29.93,NW,318,6.0,13.0,60,0.00,,,0.00,Wunderground v.1.15,2013-06-06 18:35:00,
2013-06-06 13:40:00,68.4,53.0,29.93,NW,312,6.0,13.0,58,0.00,,,0.00,Wunderground v.1.15,2013-06-06 18:40:00,
2013-06-06 13:50:00,69.3,53.9,29.92,NNW,331,7.0,13.0,58,0.00,,,0.00,Wunderground v.1.15,2013-06-06 18:50:00,
2013-06-06 13:59:00,69.6,53.7,29.92,NNW,336,8.0,13.0,57,0.00,,,0.00,Wunderground v.1.15,2013-06-06 18:59:00,
2013-06-06 14:04:00,69.7,54.3,29.92,NNW,329,8.0,13.0,58,0.00,,,0.00,Wunderground v.1.15,2013-06-06 19:04:00,
2013-06-06 14:09:00,69.3,52.9,29.92,NNW,334,8.0,8.0,56,0.00,,,0.00,Wunderground v.1.15,2013-06-06 19:09:00,
2013-06-06 14:15:00,69.3,52.9,29.92,North,349,9.0,9.0,56,0.00,,,0.00,Wunderground v.1.15,2013-06-06 19:15:00,
2013-06-06 14:25:00,70.1,53.7,29.92,NNW,327,7.0,13.0,56,0.00,,,0.00,Wunderground v.1.15,2013-06-06 19:25:00,
2013-06-06 14:30:00,70.3,53.4,29.92,NW,323,8.0,8.0,55,0.00,,,0.00,Wunderground v.1.15,2013-06-06 19:30:00,
2013-06-06 14:35:00,71.0,54.0,29.92,NNW,332,7.0,9.0,55,0.00,,,0.00,Wunderground v.1.15,2013-06-06 19:35:00,
2013-06-06 14:40:00,70.3,53.4,29.92,NW,321,8.0,8.0,55,0.00,,,0.00,Wunderground v.1.15,2013-06-06 19:40:00,
2013-06-06 14:49:00,69.1,52.7,29.92,NW,323,9.0,13.0,56,0.00,,,0.00,Wunderground v.1.15,2013-06-06 19:49:00,
2013-06-06 14:59:00,69.6,54.2,29.92,NW,322,8.0,8.0,58,0.00,,,0.00,Wunderground v.1.15,2013-06-06 19:59:00,
2013-06-06 15:04:00,70.5,53.6,29.92,NNW,339,8.0,13.0,55,0.00,,,0.00,Wunderground v.1.15,2013-06-06 20:04:00,
2013-06-06 15:09:00,71.0,54.5,29.92,NNW,344,8.0,13.0,56,0.00,,,0.00,Wunderground v.1.15,2013-06-06 20:09:00,
2013-06-06 15:15:00,70.6,53.6,29.92,NNW,346,7.0,13.0,55,0.00,,,0.00,Wunderground v.1.15,2013-06-06 20:15:00,
2013-06-06 15:20:00,70.0,52.6,29.91,NW,321,7.0,13.0,54,0.00,,,0.00,Wunderground v.1.15,2013-06-06 20:20:00,
2013-06-06 15:30:00,69.9,52.0,29.91,NNW,343,8.0,8.0,53,0.00,,,0.00,Wunderground v.1.15,2013-06-06 20:30:00,
2013-06-06 15:35:00,70.2,52.8,29.91,NNW,327,7.0,13.0,54,0.00,,,0.00,Wunderground v.1.15,2013-06-06 20:35:00,
2013-06-06 15:40:00,71.2,51.6,29.91,NNW,331,7.0,13.0,50,0.00,,,0.00,Wunderground v.1.15,2013-06-06 20:40:00,
2013-06-06 15:45:00,71.7,52.1,29.91,NNW,331,8.0,13.0,50,0.00,,,0.00,Wunderground v.1.15,2013-06-06 20:45:00,
2013-06-06 15:54:00,70.5,52.0,29.91,NW,321,7.0,13.0,52,0.00,,,0.00,Wunderground v.1.15,2013-06-06 20:54:00,
2013-06-06 16:04:00,71.0,53.5,29.91,NNW,346,7.0,13.0,54,0.00,,,0.00,Wunderground v.1.15,2013-06-06 21:04:00,
2013-06-06 16:09:00,70.7,53.2,29.91,NNW,341,7.0,13.0,54,0.00,,,0.00,Wunderground v.1.15,2013-06-06 21:09:00,
2013-06-06 16:14:00,70.2,53.8,29.91,NNW,348,8.0,13.0,56,0.00,,,0.00,Wunderground v.1.15,2013-06-06 21:14:00,
2013-06-06 16:20:00,71.1,53.6,29.91,NNW,341,9.0,9.0,54,0.00,,,0.00,Wunderground v.1.15,2013-06-06 21:20:00,
2013-06-06 16:25:00,70.6,52.1,29.91,NNW,339,9.0,13.0,52,0.00,,,0.00,Wunderground v.1.15,2013-06-06 21:25:00,
2013-06-06 16:30:00,70.2,52.8,29.91,NNW,336,8.0,13.0,54,0.00,,,0.00,Wunderground v.1.15,2013-06-06 21:30:00,
2013-06-06 16:40:00,69.7,53.8,29.91,North,355,7.0,13.0,57,0.00,,,0.00,Wunderground v.1.15,2013-06-06 21:40:00,
2013-06-06 16:45:00,69.6,52.7,29.91,NNW,343,8.0,13.0,55,0.00,,,0.00,Wunderground v.1.15,2013-06-06 21:45:00,
2013-06-06 16:50:00,69.5,51.6,29.91,NNW,338,8.0,8.0,53,0.00,,,0.00,Wunderground v.1.15,2013-06-06 21:50:00,
2013-06-06 16:59:00,69.4,53.0,29.91,NNW,331,8.0,13.0,56,0.00,,,0.00,Wunderground v.1.15,2013-06-06 21:59:00,
2013-06-06 17:04:00,69.3,52.9,29.91,NNW,329,8.0,13.0,56,0.00,,,0.00,Wunderground v.1.15,2013-06-06 22:04:00,
2013-06-06 17:09:00,69.5,52.6,29.91,NNW,341,7.0,7.0,55,0.00,,,0.00,Wunderground v.1.15,2013-06-06 22:09:00,
2013-06-06 17:14:00,69.8,51.9,29.91,NNW,337,7.0,13.0,53,0.00,,,0.00,Wunderground v.1.15,2013-06-06 22:14:00,
2013-06-06 17:19:00,70.0,53.6,29.92,NW,312,7.0,7.0,56,0.00,,,0.00,Wunderground v.1.15,2013-06-06 22:19:00,
2013-06-06 17:25:00,70.2,53.3,29.92,NNW,329,7.0,10.0,55,0.00,,,0.00,Wunderground v.1.15,2013-06-06 22:25:00,
2013-06-06 17:30:00,70.1,52.7,29.91,NNW,329,8.0,8.0,54,0.00,,,0.00,Wunderground v.1.15,2013-06-06 22:30:00,
2013-06-06 17:35:00,69.9,52.5,29.92,North,5,8.0,13.0,54,0.00,,,0.00,Wunderground v.1.15,2013-06-06 22:35:00,
2013-06-06 17:45:00,69.7,52.8,29.91,NNW,339,8.0,9.0,55,0.00,,,0.00,Wunderground v.1.15,2013-06-06 22:45:00,
2013-06-06 17:50:00,69.4,52.5,29.91,NNW,333,9.0,9.0,55,0.00,,,0.00,Wunderground v.1.15,2013-06-06 22:50:00,
2013-06-06 17:55:00,69.1,51.8,29.91,NNW,340,8.0,10.0,54,0.00,,,0.00,Wunderground v.1.15,2013-06-06 22:55:00,
2013-06-06 18:04:00,69.0,52.2,29.91,NNW,335,8.0,13.0,55,0.00,,,0.00,Wunderground v.1.15,2013-06-06 23:04:00,
2013-06-06 18:09:00,69.0,52.2,29.91,NNW,341,8.0,8.0,55,0.00,,,0.00,Wunderground v.1.15,2013-06-06 23:09:00,
2013-06-06 18:19:00,68.9,51.6,29.91,North,350,7.0,13.0,54,0.00,,,0.00,Wunderground v.1.15,2013-06-06 23:19:00,
2013-06-06 18:24:00,68.7,51.9,29.91,NNW,337,7.0,13.0,55,0.00,,,0.00,Wunderground v.1.15,2013-06-06 23:24:00,
2013-06-06 18:30:00,68.5,51.7,29.91,NNW,346,7.0,13.0,55,0.00,,,0.00,Wunderground v.1.15,2013-06-06 23:30:00,
2013-06-06 18:35:00,68.5,52.7,29.91,NW,324,7.0,13.0,57,0.00,,,0.00,Wunderground v.1.15,2013-06-06 23:35:00,
2013-06-06 18:40:00,68.4,52.1,29.91,NNW,333,7.0,7.0,56,0.00,,,0.00,Wunderground v.1.15,2013-06-06 23:40:00,
2013-06-06 18:45:00,68.2,51.9,29.91,NNW,327,7.0,13.0,56,0.00,,,0.00,Wunderground v.1.15,2013-06-06 23:45:00,
2013-06-06 18:55:00,68.1,51.3,29.91,NNW,346,7.0,13.0,55,0.00,,,0.00,Wunderground v.1.15,2013-06-06 23:55:00,
2013-06-06 19:00:00,68.1,51.8,29.91,NW,326,7.0,13.0,56,0.00,,,0.00,Wunderground v.1.15,2013-06-07 00:00:00,
2013-06-06 19:09:00,67.9,52.1,29.91,NNW,337,5.0,13.0,57,0.00,,,0.00,Wunderground v.1.15,2013-06-07 00:09:00,
2013-06-06 19:14:00,67.9,53.0,29.91,North,349,5.0,13.0,59,0.00,,,0.00,Wunderground v.1.15,2013-06-07 00:14:00,
2013-06-06 19:19:00,67.8,51.5,29.92,NNW,339,6.0,13.0,56,0.00,,,0.00,Wunderground v.1.15,2013-06-07 00:19:00,
2013-06-06 19:29:00,67.7,50.9,29.91,NNW,344,7.0,7.0,55,0.00,,,0.00,Wunderground v.1.15,2013-06-07 00:29:00,
2013-06-06 19:35:00,67.7,51.9,29.92,NNW,341,6.0,13.0,57,0.00,,,0.00,Wunderground v.1.15,2013-06-07 00:35:00,
2013-06-06 19:40:00,67.5,52.2,29.92,NNW,339,6.0,6.0,58,0.00,,,0.00,Wunderground v.1.15,2013-06-07 00:40:00,
2013-06-06 19:45:00,67.4,52.6,29.92,NNW,339,5.0,13.0,59,0.00,,,0.00,Wunderground v.1.15,2013-06-07 00:45:00,
2013-06-06 19:50:00,67.3,52.0,29.92,NNW,340,4.0,13.0,58,0.00,,,0.00,Wunderground v.1.15,2013-06-07 00:50:00,
2013-06-06 20:00:00,67.2,51.9,29.92,NNW,339,5.0,5.0,58,0.00,,,0.00,Wunderground v.1.15,2013-06-07 01:00:00,
2013-06-06 20:05:00,67.0,51.7,29.92,NNW,338,5.0,13.0,58,0.00,,,0.00,Wunderground v.1.15,2013-06-07 01:05:00,
2013-06-06 20:14:00,66.3,51.5,29.92,NNW,338,4.0,13.0,59,0.00,,,0.00,Wunderground v.1.15,2013-06-07 01:14:00,
2013-06-06 20:19:00,66.1,51.8,29.92,NNW,338,4.0,13.0,60,0.00,,,0.00,Wunderground v.1.15,2013-06-07 01:19:00,
2013-06-06 20:24:00,65.8,51.5,29.92,NNW,338,4.0,13.0,60,0.00,,,0.00,Wunderground v.1.15,2013-06-07 01:24:00,
2013-06-06 20:34:00,65.2,51.0,29.92,NNW,340,4.0,13.0,60,0.00,,,0.00,Wunderground v.1.15,2013-06-07 01:34:00,
2013-06-06 20:40:00,65.0,51.2,29.92,NNW,340,4.0,13.0,61,0.00,,,0.00,Wunderground v.1.15,2013-06-07 01:40:00,
2013-06-06 20:45:00,64.7,50.9,29.92,NNW,340,4.0,13.0,61,0.00,,,0.00,Wunderground v.1.15,2013-06-07 01:45:00,
2013-06-06 20:50:00,64.5,51.2,29.92,NNW,340,3.0,13.0,62,0.00,,,0.00,Wunderground v.1.15,2013-06-07 01:50:00,
2013-06-06 20:55:00,64.1,50.8,29.92,NNW,340,3.0,13.0,62,0.00,,,0.00,Wunderground v.1.15,2013-06-07 01:55:00,
2013-06-06 21:00:00,63.8,50.5,29.92,NNW,340,3.0,3.0,62,0.00,,,0.00,Wunderground v.1.15,2013-06-07 02:00:00,
2013-06-06 21:10:00,63.4,50.6,29.92,NNW,340,3.0,3.0,63,0.00,,,0.00,Wunderground v.1.15,2013-06-07 02:10:00,
2013-06-06 21:19:00,62.9,50.5,29.92,NNW,340,3.0,13.0,64,0.00,,,0.00,Wunderground v.1.15,2013-06-07 02:19:00,
2013-06-06 21:24:00,62.4,50.5,29.92,NNW,340,3.0,13.0,65,0.00,,,0.00,Wunderground v.1.15,2013-06-07 02:24:00,
2013-06-06 21:29:00,62.2,50.3,29.92,NNW,340,4.0,13.0,65,0.00,,,0.00,Wunderground v.1.15,2013-06-07 02:29:00,
2013-06-06 21:35:00,62.1,50.2,29.92,NNW,340,3.0,13.0,65,0.00,,,0.00,Wunderground v.1.15,2013-06-07 02:35:00,
2013-06-06 21:45:00,61.6,50.1,29.93,NNW,340,3.0,13.0,66,0.00,,,0.00,Wunderground v.1.15,2013-06-07 02:45:00,
2013-06-06 21:50:00,61.3,50.2,29.93,NNW,340,3.0,13.0,67,0.00,,,0.00,Wunderground v.1.15,2013-06-07 02:50:00,
2013-06-06 21:55:00,61.0,50.0,29.93,NNW,340,3.0,13.0,67,0.00,,,0.00,Wunderground v.1.15,2013-06-07 02:55:00,
2013-06-06 22:00:00,60.9,49.9,29.93,NNW,340,2.0,13.0,67,0.00,,,0.00,Wunderground v.1.15,2013-06-07 03:00:00,
2013-06-06 22:05:00,60.8,49.8,29.93,NNW,340,2.0,13.0,67,0.00,,,0.00,Wunderground v.1.15,2013-06-07 03:05:00,
2013-06-06 22:15:00,60.8,49.8,29.94,NNW,340,1.0,13.0,67,0.00,,,0.00,Wunderground v.1.15,2013-06-07 03:15:00,
2013-06-06 22:24:00,60.5,49.5,29.94,NNW,340,2.0,13.0,67,0.00,,,0.00,Wunderground v.1.15,2013-06-07 03:24:00,
2013-06-06 22:29:00,60.7,49.7,29.94,NNW,340,1.0,13.0,67,0.00,,,0.00,Wunderground v.1.15,2013-06-07 03:29:00,
2013-06-06 22:34:00,60.8,49.8,29.95,NNW,340,1.0,13.0,67,0.00,,,0.00,Wunderground v.1.15,2013-06-07 03:34:00,
2013-06-06 22:40:00,60.9,49.5,29.95,NNW,340,1.0,1.0,66,0.00,,,0.00,Wunderground v.1.15,2013-06-07 03:40:00,
2013-06-06 22:50:00,60.8,49.4,29.95,NNW,340,0.0,13.0,66,0.00,,,0.00,Wunderground v.1.15,2013-06-07 03:50:00,
2013-06-06 22:55:00,60.6,49.6,29.95,NNW,340,0.0,13.0,67,0.00,,,0.00,Wunderground v.1.15,2013-06-07 03:55:00,
2013-06-06 23:00:00,60.5,49.5,29.95,NNW,340,1.0,1.0,67,0.00,,,0.00,Wunderground v.1.15,2013-06-07 04:00:00,
2013-06-06 23:05:00,60.3,49.3,29.95,NNW,340,1.0,13.0,67,0.00,,,0.00,Wunderground v.1.15,2013-06-07 04:05:00,
2013-06-06 23:10:00,60.0,49.4,29.95,NNW,340,1.0,13.0,68,0.00,,,0.00,Wunderground v.1.15,2013-06-07 04:10:00,
2013-06-06 23:14:00,59.9,49.3,29.95,NNW,340,2.0,13.0,68,0.00,,,0.00,Wunderground v.1.15,2013-06-07 04:14:00,
2013-06-06 23:20:00,59.8,49.2,29.95,NNW,340,2.0,13.0,68,0.00,,,0.00,Wunderground v.1.15,2013-06-07 04:20:00,
2013-06-06 23:29:00,59.7,49.5,29.95,NNW,340,2.0,2.0,69,0.00,,,0.00,Wunderground v.1.15,2013-06-07 04:29:00,
2013-06-06 23:34:00,59.3,49.5,29.95,NNW,340,2.0,13.0,70,0.00,,,0.00,Wunderground v.1.15,2013-06-07 04:34:00,
2013-06-06 23:39:00,58.9,49.5,29.95,NNW,340,1.0,13.0,71,0.00,,,0.00,Wunderground v.1.15,2013-06-07 04:39:00,
2013-06-06 23:45:00,58.5,49.5,29.95,NNW,340,1.0,13.0,72,0.00,,,0.00,Wunderground v.1.15,2013-06-07 04:45:00,
2013-06-06 23:50:00,58.0,49.4,29.95,NNW,340,2.0,13.0,73,0.00,,,0.00,Wunderground v.1.15,2013-06-07 04:50:00,